N324BA KSAN-KLAX

Flight info

Callsign N324BA
Flight time 0h 31m
Altitude 10000
Route CWARD2 SLI
Aircraft P180/L-SBDFGM3RWXY/LB1

Departure

Time 2026-05-08 00:09
Airport San Diego International Airport (KSAN)

Arrival

Time 2026-05-08 00:40
Airport Los Angeles International Airport (KLAX)
Time Latitude Longitude Altitude Speed Heading
2026-05-07 23:52 32.73412 -117.17971 21 ft 0 kts 290°
2026-05-07 23:59 32.73413 -117.17972 21 ft 0 kts 282°
2026-05-07 23:59 32.73411 -117.17976 21 ft 1 kts 245°
2026-05-07 23:59 32.73403 -117.17975 23 ft 0 kts 146°
2026-05-08 00:00 32.73400 -117.17971 22 ft 2 kts 133°
2026-05-08 00:00 32.73394 -117.17960 22 ft 1 kts 127°
2026-05-08 00:00 32.73385 -117.17952 21 ft 2 kts 147°
2026-05-08 00:00 32.73372 -117.17946 22 ft 2 kts 160°
2026-05-08 00:01 32.73357 -117.17926 20 ft 5 kts 116°
2026-05-08 00:01 32.73356 -117.17923 20 ft 0 kts 114°
2026-05-08 00:01 32.73356 -117.17920 20 ft 2 kts 104°
2026-05-08 00:02 32.73369 -117.17921 20 ft 4 kts 276°
2026-05-08 00:02 32.73354 -117.17951 20 ft 6 kts 198°
2026-05-08 00:02 32.73308 -117.17968 19 ft 8 kts 196°
2026-05-08 00:02 32.73267 -117.17982 18 ft 4 kts 192°
2026-05-08 00:03 32.73226 -117.17957 16 ft 9 kts 124°
2026-05-08 00:03 32.73208 -117.17884 16 ft 11 kts 109°
2026-05-08 00:03 32.73188 -117.17802 17 ft 8 kts 104°
2026-05-08 00:03 32.73179 -117.17767 17 ft 0 kts 105°
2026-05-08 00:04 32.73177 -117.17756 17 ft 3 kts 105°
2026-05-08 00:04 32.73166 -117.17710 17 ft 8 kts 105°
2026-05-08 00:04 32.73149 -117.17641 17 ft 7 kts 106°
2026-05-08 00:04 32.73137 -117.17596 16 ft 7 kts 117°
2026-05-08 00:05 32.73097 -117.17554 16 ft 3 kts 148°
2026-05-08 00:05 32.73096 -117.17554 16 ft 0 kts 148°
2026-05-08 00:08 32.73080 -117.17539 16 ft 7 kts 144°
2026-05-08 00:08 32.73033 -117.17538 17 ft 5 kts 191°
2026-05-08 00:08 32.73017 -117.17576 17 ft 10 kts 290°
2026-05-08 00:08 32.73082 -117.17843 15 ft 70 kts 287°
2026-05-08 00:09 32.73293 -117.18696 146 ft 129 kts 287°
2026-05-08 00:09 32.73569 -117.19734 677 ft 134 kts 288°
2026-05-08 00:09 32.73945 -117.20771 1285 ft 134 kts 303°
2026-05-08 00:09 32.74609 -117.21589 1785 ft 146 kts 319°
2026-05-08 00:10 32.75354 -117.22479 2186 ft 156 kts 312°
2026-05-08 00:10 32.76078 -117.23473 2573 ft 163 kts 306°
2026-05-08 00:10 32.76721 -117.24623 2992 ft 179 kts 302°
2026-05-08 00:10 32.77357 -117.25881 3908 ft 172 kts 299°
2026-05-08 00:11 32.77885 -117.27147 4732 ft 176 kts 295°
2026-05-08 00:11 32.78440 -117.28537 5196 ft 196 kts 295°
2026-05-08 00:11 32.79064 -117.30067 5532 ft 215 kts 296°
2026-05-08 00:11 32.79758 -117.31692 5822 ft 228 kts 298°
2026-05-08 00:12 32.80607 -117.33353 5973 ft 240 kts 303°
2026-05-08 00:12 32.81725 -117.34879 6077 ft 249 kts 315°
2026-05-08 00:12 32.82977 -117.36347 6184 ft 254 kts 314°
2026-05-08 00:12 32.84153 -117.37930 6247 ft 260 kts 308°
2026-05-08 00:13 32.85258 -117.39656 6389 ft 259 kts 306°
2026-05-08 00:13 32.86299 -117.41356 6834 ft 247 kts 305°
2026-05-08 00:13 32.87240 -117.42984 7541 ft 230 kts 304°
2026-05-08 00:13 32.88146 -117.44543 8004 ft 232 kts 305°
2026-05-08 00:14 32.89105 -117.46088 8440 ft 232 kts 307°
2026-05-08 00:14 32.90117 -117.47591 8858 ft 233 kts 311°
2026-05-08 00:14 32.91188 -117.49039 9058 ft 234 kts 314°
2026-05-08 00:14 32.92224 -117.50554 9410 ft 237 kts 310°
2026-05-08 00:15 32.93218 -117.52128 9786 ft 240 kts 307°
2026-05-08 00:15 32.94191 -117.53784 9942 ft 250 kts 307°
2026-05-08 00:15 32.95222 -117.55509 9983 ft 261 kts 308°
2026-05-08 00:15 32.96323 -117.57265 9991 ft 267 kts 309°
2026-05-08 00:16 32.97473 -117.59029 9995 ft 272 kts 310°
2026-05-08 00:16 32.98621 -117.60814 9992 ft 271 kts 309°
2026-05-08 00:16 32.99759 -117.62604 9992 ft 271 kts 309°
2026-05-08 00:16 33.00905 -117.64392 9995 ft 272 kts 310°
2026-05-08 00:17 33.02053 -117.66180 9990 ft 272 kts 309°
2026-05-08 00:17 33.03197 -117.67971 9990 ft 272 kts 309°
2026-05-08 00:17 33.04344 -117.69765 9993 ft 272 kts 309°
2026-05-08 00:17 33.05494 -117.71563 9989 ft 272 kts 309°
2026-05-08 00:18 33.06693 -117.73297 9986 ft 271 kts 318°
2026-05-08 00:18 33.08129 -117.74744 9986 ft 270 kts 324°
2026-05-08 00:18 33.09590 -117.76150 9987 ft 270 kts 322°
2026-05-08 00:18 33.11007 -117.77626 9988 ft 271 kts 321°
2026-05-08 00:19 33.12406 -117.79085 9982 ft 271 kts 322°
2026-05-08 00:19 33.13845 -117.80528 9982 ft 271 kts 322°
2026-05-08 00:19 33.15282 -117.81978 9982 ft 271 kts 322°
2026-05-08 00:19 33.16710 -117.83445 9983 ft 271 kts 322°
2026-05-08 00:20 33.18141 -117.84906 9978 ft 271 kts 322°
2026-05-08 00:20 33.19657 -117.86214 9973 ft 268 kts 337°
2026-05-08 00:20 33.21452 -117.86723 9974 ft 265 kts 353°
2026-05-08 00:20 33.23270 -117.87092 9968 ft 266 kts 350°
2026-05-08 00:21 33.25072 -117.87594 9965 ft 266 kts 348°
2026-05-08 00:21 33.26878 -117.88082 9970 ft 266 kts 350°
2026-05-08 00:21 33.28693 -117.88504 9969 ft 266 kts 351°
2026-05-08 00:21 33.30507 -117.88938 9968 ft 266 kts 350°
2026-05-08 00:22 33.32316 -117.89402 9969 ft 266 kts 349°
2026-05-08 00:22 33.34122 -117.89859 9965 ft 266 kts 350°
2026-05-08 00:22 33.35934 -117.90304 9963 ft 266 kts 350°
2026-05-08 00:22 33.37744 -117.90754 9965 ft 266 kts 349°
2026-05-08 00:23 33.39529 -117.91328 9964 ft 266 kts 343°
2026-05-08 00:23 33.41293 -117.92000 9964 ft 266 kts 344°
2026-05-08 00:23 33.43068 -117.92623 9964 ft 266 kts 345°
2026-05-08 00:23 33.44842 -117.93244 9961 ft 266 kts 345°
2026-05-08 00:24 33.46612 -117.93897 9964 ft 266 kts 344°
2026-05-08 00:24 33.48377 -117.94546 9991 ft 265 kts 345°
2026-05-08 00:24 33.50122 -117.95182 9759 ft 261 kts 344°
2026-05-08 00:24 33.51849 -117.95815 9516 ft 251 kts 344°
2026-05-08 00:25 33.53439 -117.96391 9488 ft 227 kts 344°
2026-05-08 00:25 33.54937 -117.96925 9080 ft 225 kts 344°
2026-05-08 00:25 33.56439 -117.97471 8772 ft 225 kts 343°
2026-05-08 00:25 33.57928 -117.98016 8491 ft 223 kts 343°
2026-05-08 00:26 33.59410 -117.98556 8218 ft 222 kts 342°
2026-05-08 00:26 33.60888 -117.99094 7933 ft 222 kts 342°
2026-05-08 00:26 33.62360 -117.99632 7654 ft 221 kts 342°
2026-05-08 00:26 33.63832 -118.00172 7457 ft 221 kts 341°
2026-05-08 00:27 33.65298 -118.00709 7275 ft 220 kts 341°
2026-05-08 00:27 33.66766 -118.01245 7189 ft 220 kts 341°
2026-05-08 00:27 33.68231 -118.01779 7106 ft 220 kts 341°
2026-05-08 00:27 33.69675 -118.02305 7046 ft 219 kts 341°
2026-05-08 00:28 33.71162 -118.02853 7028 ft 223 kts 341°
2026-05-08 00:28 33.72627 -118.03391 6998 ft 224 kts 341°
2026-05-08 00:28 33.74119 -118.03935 6979 ft 225 kts 341°
2026-05-08 00:28 33.75621 -118.04482 6982 ft 225 kts 341°
2026-05-08 00:29 33.77123 -118.05004 6978 ft 225 kts 347°
2026-05-08 00:29 33.78672 -118.04750 6957 ft 230 kts 22°
2026-05-08 00:29 33.80024 -118.03763 6737 ft 228 kts 31°
2026-05-08 00:29 33.81343 -118.02684 6384 ft 231 kts 31°
2026-05-08 00:30 33.82670 -118.01606 6226 ft 229 kts 31°
2026-05-08 00:30 33.83984 -118.00528 6040 ft 228 kts 31°
2026-05-08 00:30 33.85272 -117.99454 5975 ft 222 kts 31°
2026-05-08 00:30 33.86515 -117.98407 5959 ft 214 kts 31°
2026-05-08 00:31 33.87729 -117.97559 5968 ft 202 kts 12°
2026-05-08 00:31 33.89101 -117.97484 5868 ft 196 kts 352°
2026-05-08 00:31 33.90455 -117.97614 5651 ft 200 kts 351°
2026-05-08 00:31 33.91925 -117.97754 5333 ft 215 kts 351°
2026-05-08 00:32 33.93420 -117.97902 4967 ft 216 kts 349°
2026-05-08 00:32 33.94854 -117.98313 4667 ft 209 kts 334°
2026-05-08 00:32 33.96061 -117.99233 4351 ft 204 kts 314°
2026-05-08 00:32 33.97004 -118.00492 4040 ft 201 kts 306°
2026-05-08 00:33 33.97476 -118.02041 3704 ft 201 kts 270°
2026-05-08 00:33 33.97257 -118.03708 3385 ft 202 kts 262°
2026-05-08 00:33 33.97077 -118.05357 3352 ft 197 kts 264°
2026-05-08 00:33 33.96926 -118.06969 3343 ft 188 kts 265°
2026-05-08 00:34 33.96768 -118.08505 3336 ft 182 kts 264°
2026-05-08 00:34 33.96607 -118.10007 3258 ft 181 kts 264°
2026-05-08 00:34 33.96452 -118.11508 3207 ft 180 kts 265°
2026-05-08 00:34 33.96301 -118.13003 3152 ft 180 kts 264°
2026-05-08 00:35 33.96149 -118.14497 3107 ft 179 kts 264°
2026-05-08 00:35 33.95997 -118.15980 3054 ft 180 kts 264°
2026-05-08 00:35 33.95842 -118.17484 3039 ft 184 kts 263°
2026-05-08 00:35 33.95690 -118.19049 3027 ft 190 kts 264°
2026-05-08 00:36 33.95541 -118.20552 2947 ft 173 kts 264°
2026-05-08 00:36 33.95446 -118.21488 2829 ft 169 kts 264°
2026-05-08 00:36 33.95305 -118.22858 2619 ft 158 kts 264°
2026-05-08 00:36 33.95181 -118.24076 2435 ft 134 kts 264°
2026-05-08 00:37 33.95081 -118.25105 2261 ft 122 kts 264°
2026-05-08 00:37 33.94978 -118.26104 2109 ft 119 kts 263°
2026-05-08 00:37 33.94865 -118.27117 1951 ft 124 kts 263°
2026-05-08 00:38 33.94672 -118.29137 1628 ft 119 kts 264°
2026-05-08 00:38 33.94573 -118.30110 1474 ft 118 kts 263°
2026-05-08 00:38 33.94474 -118.31125 1310 ft 125 kts 263°
2026-05-08 00:38 33.94365 -118.32162 1150 ft 126 kts 262°
2026-05-08 00:39 33.94257 -118.33215 987 ft 125 kts 263°
2026-05-08 00:39 33.94162 -118.34228 808 ft 118 kts 262°
2026-05-08 00:39 33.94049 -118.35207 633 ft 119 kts 259°
2026-05-08 00:39 33.93950 -118.36196 514 ft 118 kts 262°
2026-05-08 00:40 33.93851 -118.37197 331 ft 122 kts 257°
2026-05-08 00:40 33.93747 -118.38181 176 ft 117 kts 259°
2026-05-08 00:40 33.93659 -118.39042 120 ft 81 kts 261°
2026-05-08 00:40 33.93621 -118.39413 118 ft 24 kts 263°
2026-05-08 00:41 33.93590 -118.39715 120 ft 41 kts 263°
2026-05-08 00:41 33.93557 -118.39985 120 ft 27 kts 254°
2026-05-08 00:41 33.93494 -118.40184 120 ft 18 kts 236°
2026-05-08 00:41 33.93431 -118.40234 120 ft 8 kts 191°
2026-05-08 00:42 33.93421 -118.40235 118 ft 0 kts 183°
2026-05-08 00:42 33.93415 -118.40216 119 ft 6 kts 78°
2026-05-08 00:43 33.93418 -118.40197 120 ft 0 kts 80°
2026-05-08 00:43 33.93418 -118.40182 120 ft 5 kts 86°
2026-05-08 00:43 33.93425 -118.40116 120 ft 11 kts 85°
2026-05-08 00:43 33.93438 -118.39999 118 ft 17 kts 81°
2026-05-08 00:44 33.93439 -118.39994 118 ft 17 kts 81°
2026-05-08 00:44 33.93443 -118.39948 120 ft 7 kts 87°
2026-05-08 00:44 33.93451 -118.39863 116 ft 13 kts 84°
2026-05-08 00:44 33.93434 -118.39816 120 ft 9 kts 179°
2026-05-08 00:45 33.93361 -118.39790 120 ft 12 kts 145°
2026-05-08 00:45 33.93324 -118.39737 118 ft 3 kts 123°
2026-05-08 00:45 33.93322 -118.39732 118 ft 0 kts 123°